TimeCDT,TemperatureF,Dew PointF,Humidity,Sea Level PressureIn,VisibilityMPH,Wind Direction,Wind SpeedMPH,Gust SpeedMPH,PrecipitationIn,Events,Conditions,WindDirDegrees,DateUTC
12:15 AM,45.3,39.2,79,29.67,7.0,East,12.7,-,0.02,Rain-Thunderstorm,Thunderstorms and Rain,100,2013-04-14 05:15:00
12:35 AM,44.4,40.5,86,29.69,7.0,East,8.1,-,0.05,Rain-Thunderstorm,Light Thunderstorms and Rain,90,2013-04-14 05:35:00
12:55 AM,43.7,41.0,90,29.68,5.0,ENE,10.4,-,0.10,Rain-Thunderstorm,Thunderstorms and Rain,70,2013-04-14 05:55:00
1:15 AM,43.3,41.9,95,29.66,5.0,East,12.7,-,0.07,Rain,Heavy Rain,90,2013-04-14 06:15:00
1:35 AM,42.8,41.9,97,29.65,7.0,East,9.2,-,0.16,Rain,Light Rain,100,2013-04-14 06:35:00
1:55 AM,42.8,41.9,97,29.65,7.0,East,9.2,-,0.20,Rain,Light Rain,80,2013-04-14 06:55:00
2:15 AM,43.0,42.1,97,29.63,10.0,East,13.8,-,0.02,Rain,Light Rain,80,2013-04-14 07:15:00
2:35 AM,43.7,41.5,92,29.60,10.0,East,16.1,26.5,0.04,Rain,Rain,80,2013-04-14 07:35:00
2:55 AM,42.8,41.4,95,29.57,10.0,East,15.0,19.6,0.04,Rain,Light Rain,80,2013-04-14 07:55:00
3:15 AM,43.2,41.2,93,29.55,10.0,East,20.7,24.2,0.01,Rain-Thunderstorm,Light Thunderstorms and Rain,80,2013-04-14 08:15:00
3:35 AM,43.5,41.2,91,29.53,7.0,East,17.3,23.0,0.05,Rain-Thunderstorm,Light Thunderstorms and Rain,80,2013-04-14 08:35:00
3:55 AM,43.7,41.2,91,29.51,10.0,East,16.1,23.0,0.05,Rain,Light Rain,80,2013-04-14 08:55:00
4:15 AM,43.7,41.4,91,29.53,10.0,ENE,9.2,17.3,N/A,Thunderstorm,Mostly Cloudy,70,2013-04-14 09:15:00
4:35 AM,43.7,41.2,91,29.51,10.0,ENE,10.4,-,N/A,,Scattered Clouds,70,2013-04-14 09:35:00
4:55 AM,43.7,41.5,92,29.50,10.0,ENE,13.8,-,N/A,,Clear,70,2013-04-14 09:55:00
5:15 AM,43.7,41.7,93,29.48,10.0,ENE,12.7,19.6,N/A,,Clear,70,2013-04-14 10:15:00
5:35 AM,43.7,41.7,93,29.46,10.0,ENE,12.7,19.6,N/A,,Clear,70,2013-04-14 10:35:00
5:55 AM,43.9,41.9,93,29.44,10.0,East,13.8,19.6,N/A,,Clear,80,2013-04-14 10:55:00
6:15 AM,44.1,41.9,92,29.43,10.0,East,13.8,-,N/A,,Clear,80,2013-04-14 11:15:00
6:35 AM,44.6,42.3,91,29.42,10.0,East,12.7,18.4,N/A,,Clear,80,2013-04-14 11:35:00
6:55 AM,45.3,42.6,90,29.42,10.0,East,11.5,-,N/A,,Clear,80,2013-04-14 11:55:00
7:15 AM,45.5,42.8,90,29.40,10.0,East,12.7,-,N/A,,Clear,90,2013-04-14 12:15:00
7:35 AM,46.8,43.7,89,29.39,10.0,East,13.8,-,N/A,,Clear,100,2013-04-14 12:35:00
7:55 AM,48.0,44.2,87,29.37,10.0,East,13.8,-,N/A,,Clear,100,2013-04-14 12:55:00
8:15 AM,49.1,44.6,84,29.36,10.0,ESE,17.3,21.9,N/A,,Clear,110,2013-04-14 13:15:00
8:35 AM,49.5,45.0,84,29.35,10.0,ESE,16.1,-,N/A,,Clear,110,2013-04-14 13:35:00
8:55 AM,50.2,45.5,84,29.34,10.0,ESE,15.0,18.4,N/A,,Clear,110,2013-04-14 13:55:00
9:15 AM,52.0,46.4,81,29.33,10.0,ESE,15.0,-,N/A,,Clear,110,2013-04-14 14:15:00
9:35 AM,53.1,47.7,82,29.32,10.0,ESE,13.8,-,N/A,,Clear,110,2013-04-14 14:35:00
9:55 AM,55.9,49.1,78,29.32,10.0,ESE,13.8,-,N/A,,Clear,110,2013-04-14 14:55:00
10:15 AM,58.5,49.8,73,29.31,10.0,ESE,17.3,25.3,N/A,,Clear,120,2013-04-14 15:15:00
10:35 AM,59.2,50.4,73,29.32,10.0,SE,15.0,-,N/A,,Clear,130,2013-04-14 15:35:00
10:55 AM,60.4,50.5,70,29.32,10.0,SE,15.0,-,N/A,,Scattered Clouds,130,2013-04-14 15:55:00
11:15 AM,61.3,51.8,71,29.32,10.0,SE,11.5,-,N/A,,Overcast,140,2013-04-14 16:15:00
11:35 AM,63.7,52.7,67,29.33,10.0,South,8.1,18.4,N/A,,Overcast,170,2013-04-14 16:35:00
11:55 AM,64.8,51.4,62,29.32,10.0,South,15.0,-,N/A,,Scattered Clouds,170,2013-04-14 16:55:00
12:15 PM,65.8,51.8,60,29.33,10.0,South,12.7,20.7,N/A,,Clear,190,2013-04-14 17:15:00
12:35 PM,66.6,51.6,59,29.32,10.0,South,11.5,18.4,N/A,,Clear,180,2013-04-14 17:35:00
12:55 PM,64.9,50.7,60,29.34,10.0,SW,11.5,-,N/A,,Clear,230,2013-04-14 17:55:00
1:15 PM,60.4,50.4,69,29.36,10.0,West,26.5,33.4,N/A,,Scattered Clouds,260,2013-04-14 18:15:00
1:35 PM,56.5,49.1,76,29.37,10.0,West,18.4,26.5,N/A,,Scattered Clouds,270,2013-04-14 18:35:00
1:55 PM,57.2,48.6,73,29.40,10.0,West,20.7,27.6,N/A,,Scattered Clouds,260,2013-04-14 18:55:00
2:15 PM,55.9,47.8,74,29.40,10.0,West,21.9,31.1,N/A,,Clear,270,2013-04-14 19:15:00
2:35 PM,55.4,48.0,76,29.42,10.0,West,20.7,29.9,N/A,,Clear,270,2013-04-14 19:35:00
3:15 PM,57.4,48.9,73,29.42,10.0,West,15.0,-,N/A,,Scattered Clouds,260,2013-04-14 20:15:00
3:35 PM,58.1,48.4,70,29.45,10.0,West,24.2,-,N/A,,Clear,270,2013-04-14 20:35:00
3:55 PM,58.6,47.3,66,29.47,10.0,West,20.7,31.1,N/A,,Mostly Cloudy,260,2013-04-14 20:55:00
4:15 PM,57.4,45.5,65,29.48,10.0,West,18.4,26.5,N/A,,Mostly Cloudy,270,2013-04-14 21:15:00
4:35 PM,56.3,45.5,67,29.48,10.0,WNW,16.1,23.0,N/A,,Mostly Cloudy,290,2013-04-14 21:35:00
4:55 PM,55.4,44.4,67,29.49,10.0,West,12.7,-,N/A,,Mostly Cloudy,270,2013-04-14 21:55:00
5:15 PM,56.3,44.4,64,29.48,10.0,West,10.4,-,N/A,,Mostly Cloudy,280,2013-04-14 22:15:00
5:35 PM,57.2,43.9,61,29.50,10.0,West,8.1,-,N/A,,Mostly Cloudy,260,2013-04-14 22:35:00
5:55 PM,57.9,43.3,58,29.51,10.0,WSW,8.1,-,N/A,,Mostly Cloudy,250,2013-04-14 22:55:00
6:15 PM,57.7,43.2,58,29.52,10.0,West,10.4,-,N/A,,Mostly Cloudy,260,2013-04-14 23:15:00
6:35 PM,57.2,43.2,59,29.54,10.0,WSW,6.9,-,N/A,,Mostly Cloudy,250,2013-04-14 23:35:00
6:55 PM,56.5,43.5,62,29.55,10.0,WSW,6.9,-,N/A,,Overcast,250,2013-04-14 23:55:00
7:15 PM,56.7,41.4,57,29.57,10.0,West,19.6,24.2,N/A,,Overcast,270,2013-04-15 00:15:00
7:35 PM,55.0,40.1,57,29.57,10.0,West,15.0,-,N/A,,Mostly Cloudy,270,2013-04-15 00:35:00
7:55 PM,53.6,40.1,60,29.59,10.0,West,11.5,-,N/A,,Clear,270,2013-04-15 00:55:00
8:15 PM,52.0,38.3,60,29.60,10.0,West,12.7,-,N/A,,Clear,270,2013-04-15 01:15:00
8:35 PM,50.4,38.3,63,29.61,10.0,West,10.4,-,N/A,,Clear,260,2013-04-15 01:35:00
8:55 PM,50.7,37.6,61,29.62,10.0,West,9.2,-,N/A,,Clear,260,2013-04-15 01:55:00
9:15 PM,47.3,39.4,74,29.64,10.0,West,8.1,-,N/A,,Clear,280,2013-04-15 02:15:00
9:35 PM,45.5,39.2,79,29.65,10.0,West,6.9,-,N/A,,Clear,270,2013-04-15 02:35:00
9:55 PM,44.8,39.2,81,29.65,10.0,West,4.6,-,N/A,,Clear,260,2013-04-15 02:55:00
10:15 PM,44.8,39.0,80,29.65,10.0,WSW,4.6,-,N/A,,Clear,250,2013-04-15 03:15:00
10:35 PM,45.5,38.3,76,29.65,10.0,WSW,4.6,-,N/A,,Clear,250,2013-04-15 03:35:00
10:55 PM,43.3,38.1,82,29.66,10.0,WSW,3.5,-,N/A,,Clear,250,2013-04-15 03:55:00
11:15 PM,42.6,37.9,83,29.67,10.0,SW,3.5,-,N/A,,Clear,220,2013-04-15 04:15:00
11:35 PM,43.3,37.4,80,29.67,10.0,SW,5.8,-,N/A,,Clear,220,2013-04-15 04:35:00
11:55 PM,41.5,36.1,81,29.67,10.0,SW,4.6,-,N/A,,Clear,220,2013-04-15 04:55:00